World > North America > United States > Ohio

Urbancrest, Ohio Regional Weather

Lat: 39.90N, Lon: 83.09W
Wx Zone: OHZ055Web Search
Urbancrest Weather Warning NWS WEATHER ALERT FOR THE URBANCREST, OH AREA - Issued: 1111 AM EDT Sat May 8 2021 Urbancrest Weather Warning  

Our weather pages are very print friendly and they make great conversation starters.

Feedback


°F Click to change Urbancrest hourly weather to Imperial units.Click to change Urbancrest hourly weather to Metric units. °C
Urbancrest Weather Map
UTC Time: 5/8/2021, 23:06
Your Time:

Urbancrest, OH Regional Weather

Expires:202105090000;;809115
ASUS41 KCLE 082302
RWRCLE
OHIO REGIONAL WEATHER ROUNDUP
NATIONAL WEATHER SERVICE CLEVELAND, OH
700 PM EDT SAT MAY 08 2021

NOTE: "FAIR" INDICATES FEW OR NO CLOUDS BELOW 12,000 FEET WITH NO
SIGNIFICANT WEATHER AND/OR OBSTRUCTIONS TO VISIBILITY.


OHZ036-037-039>041-045>050-054>059-063>069-073>076-082>088-090000-
  CENTRAL AND SOUTHEAST OHIO
  
CITY           SKY/WX    TMP DP  RH WIND       PRES   REMARKS
COLUMBUS       PTSUNNY   54  32  43 W5        30.07S                  
OSU AIRPORT    MOSUNNY   55  33  43 VRB3      30.07F                  
BOLTON FIELD   MOSUNNY   54  34  47 SW5       30.08F                  
RICKENBACK AFB MOSUNNY   53  33  47 SW3       30.08S                  
NEWARK         PTSUNNY   54  34  46 CALM      30.07F                  
MARION         MOSUNNY   52  32  46 W3        30.07F                  
LANCASTER      MOSUNNY   53  35  50 NW5       30.09S                  
ZANESVILLE     MOSUNNY   54  32  43 CALM      30.08S                  
NEW PHILLY     NOT AVBL                                               
$$
  

SKY/WX - Weather  TMP - Temperature  DP - Dew Point  RH - Relative Humidity
WIND - Wind Direction/Speed PRES - Barometric Pressure VSB - Visibility
WCI - Wind Chill Index E13G22 Wind - East Wind 13 mph/Gusts of 22 mph